Location: Newark
(34.9500°N, 139.9667°E)
Time: 23:05:11
(UTC+00:00)

Vanguard 2 Rocket - Pass Details

Date: 15 December 2019
Orbit: 554 x 3326 km, 32.9° (Epoch: 19 January)

Event Time Altitude Azimuth Distance (km) Brightness Sun altitude
Rises 06:43:50 0° 239° (WSW) 7,302 14.1 7.2°
Reaches altitude 10° 06:49:00 10° 237° (WSW) 6,197 14.6 6.3°
Maximum altitude 07:07:39 65° 161° (SSE) 2,706 9.5 3.1°
Drops below altitude 10° 07:19:16 10° 83° (E) 4,065 9.7 1.1°
Sets 07:21:54 0° 81° (E) 4,755 10.0 0.6°
